TimeEDT,TemperatureF,Dew PointF,Humidity,Sea Level PressureIn,VisibilityMPH,Wind Direction,Wind SpeedMPH,Gust SpeedMPH,PrecipitationIn,Events,Conditions,WindDirDegrees,DateUTC
12:58 AM,73.9,69.1,85,29.97,10.0,Calm,Calm,-,N/A,,Scattered Clouds,0,2013-09-21 04:58:00
1:58 AM,72.0,69.1,91,29.96,10.0,Calm,Calm,-,N/A,,Partly Cloudy,0,2013-09-21 05:58:00
2:58 AM,71.1,68.0,90,29.94,10.0,Calm,Calm,-,N/A,,Partly Cloudy,0,2013-09-21 06:58:00
3:58 AM,71.1,68.0,90,29.91,10.0,Calm,Calm,-,N/A,,Clear,0,2013-09-21 07:58:00
4:58 AM,71.1,68.0,90,29.89,10.0,Calm,Calm,-,N/A,,Clear,0,2013-09-21 08:58:00
5:58 AM,71.1,68.0,90,29.89,10.0,Calm,Calm,-,N/A,,Clear,0,2013-09-21 09:58:00
6:58 AM,71.1,68.0,90,29.90,10.0,WSW,4.6,-,N/A,,Clear,250,2013-09-21 10:58:00
7:58 AM,72.0,69.1,91,29.92,10.0,West,6.9,-,N/A,,Clear,260,2013-09-21 11:58:00
8:58 AM,75.9,71.1,85,29.93,10.0,West,4.6,-,N/A,,Clear,270,2013-09-21 12:58:00
9:58 AM,81.0,71.1,72,29.92,10.0,Variable,4.6,-,N/A,,Clear,0,2013-09-21 13:58:00
10:58 AM,82.9,69.1,63,29.91,10.0,Variable,5.8,-,N/A,,Partly Cloudy,0,2013-09-21 14:58:00
11:58 AM,82.0,69.1,65,29.90,10.0,ESE,6.9,-,N/A,,Overcast,120,2013-09-21 15:58:00
12:58 PM,84.0,70.0,63,29.88,10.0,East,8.1,-,N/A,,Partly Cloudy,100,2013-09-21 16:58:00
1:58 PM,84.9,70.0,61,29.86,10.0,ESE,9.2,-,N/A,,Clear,110,2013-09-21 17:58:00
2:58 PM,84.9,70.0,61,29.84,10.0,ESE,11.5,-,N/A,,Partly Cloudy,110,2013-09-21 18:58:00
3:58 PM,84.9,70.0,61,29.81,10.0,ESE,12.7,-,N/A,,Clear,120,2013-09-21 19:58:00
4:58 PM,84.9,70.0,61,29.80,10.0,SE,12.7,-,N/A,,Clear,130,2013-09-21 20:58:00
5:58 PM,82.9,70.0,65,29.79,10.0,SE,12.7,-,N/A,,Clear,140,2013-09-21 21:58:00
6:58 PM,81.0,69.1,67,29.79,10.0,SSE,9.2,-,N/A,,Clear,150,2013-09-21 22:58:00
7:58 PM,80.1,69.1,69,29.80,10.0,SSE,8.1,-,N/A,,Clear,160,2013-09-21 23:58:00
8:58 PM,80.1,69.1,69,29.81,10.0,SSE,8.1,-,N/A,,Scattered Clouds,160,2013-09-22 00:58:00
9:58 PM,79.0,69.1,72,29.81,10.0,SSW,4.6,-,N/A,,Mostly Cloudy,210,2013-09-22 01:58:00
10:58 PM,78.1,69.1,74,29.82,10.0,SSW,6.9,-,N/A,,Clear,200,2013-09-22 02:58:00
11:58 PM,78.1,69.1,74,29.82,10.0,South,8.1,-,N/A,,Partly Cloudy,190,2013-09-22 03:58:00